Location: Noverd
(38.0910°N, 121.6877°W)
Time: 03:39:34
(UTC+00:00)

IGS 5A - Pass Details

Date: 13 February 2026
Orbit: 551 x 554 km, 97.4° (Epoch: 8 January)

Event Time Altitude Azimuth Distance (km) Brightness Sun altitude
Rises 13:49:48 0° 12° (NNE) 2,735 7.0 -14.2°
Reaches altitude 10° 13:51:56 10° 12° (NNE) 1,836 6.1 -13.8°
Maximum altitude 13:55:55 88° 99° (E) 558 3.3 -13.0°
Drops below altitude 10° 13:59:52 10° 192° (SSW) 1,823 5.9 -12.2°
Sets 14:01:59 0° 192° (SSW) 2,712 6.8 -11.8°
